Monte Terminillo, Italy

10:00 AM CET on February 23, 2018 (GMT +0100)
Monte Terminillo

Weather History for LIRK - July, 2013

Change the Weather History Date:

Saturday, July 27, 2013

  Actual Average Record
Temperature  
Mean Temperature 64 °F -  
Max Temperature 69 °F 61 °F 78 °F (2016)
Min Temperature 60 °F 50 °F 42 °F (2002)
Growing Degree Days 14 (Base 50)    
Moisture  
Dew Point 58 °F    
Average Humidity 75    
Maximum Humidity 88    
Minimum Humidity 58    
Precipitation  
Precipitation 0.00 in 0.09 in - ()
Sea Level Pressure  
Sea Level Pressure 30.33 in    
Wind  
Wind Speed 7 mph ()    
Max Wind Speed 14 mph    
Max Gust Speed -    
Visibility 11.7 miles    
Events      
Averages and records for this station are not official NWS values.
T = Trace of Precipitation, MM = Missing Value Source: Averaged Metar Reports

Daily Weather History Graph

Daily Weather History Graph

Search for Another Location

Airport or City:

Trip Planner

Search our weather history database for the weather conditions in past years. The results will help you decide how hot, cold, wet, or windy it might be!

Date:

Astronomy

Jul. 27, 2013 Rise Set
Actual Time 5:55 AM CEST 8:33 PM CEST
Civil Twilight 5:22 AM CEST 9:05 PM CEST
Nautical Twilight 4:42 AM CEST 9:46 PM CEST
Astronomical Twilight 3:55 AM CEST 10:32 PM CEST
Moon 11:02 PM CEST (7/27) 11:25 AM CEST (7/27)
Length of Visible Light 15h 42m
Length of Day
14h 38m
Waning Gibbous, 73% of the Moon is Illuminated
Jul 27
Waning Gibbous
Jul 29
Last Quarter
Aug 6
New
Aug 14
First Quarter
Aug 21
Full

Hourly Weather History & Observations

Time (CEST) Temp. Dew Point Humidity Pressure Visibility Wind Dir Wind Speed Gust Speed Precip Events Conditions
12:55 AM 64.4 °F 57.2 °F 77% 30.33 in - North - - N/A   Clear
1:55 AM 64.4 °F 57.2 °F 77% 30.33 in - North - - N/A   Clear
2:00 AM 64 °F 56 °F 69%  in 6 mi West 13.8 mph - -  
2:55 AM 62.6 °F 55.4 °F 77% 30.33 in - North - - N/A   Clear
3:55 AM 62.6 °F 55.4 °F 77% 30.33 in - North - - N/A   Clear
4:55 AM 62.6 °F 53.6 °F 72% 30.33 in - North - - N/A   Clear
6:55 AM 60.8 °F 53.6 °F 77% 30.33 in - North - - N/A   Clear
7:55 AM 60.8 °F 55.4 °F 82% 30.33 in - North - - N/A   Clear
8:00 AM 61 °F 56 °F 77%  in 9 mi WSW 4.6 mph - -  
8:55 AM 60.8 °F 57.2 °F 88% 30.33 in - North - - N/A   Clear
9:55 AM 62.6 °F 57.2 °F 82% 30.33 in - North - - N/A   Clear
10:55 AM 64.4 °F 59.0 °F 83% 30.33 in - North - - N/A   Partly Cloudy
11:55 AM 64.4 °F 59.0 °F 83% 30.33 in - North - - N/A   Partly Cloudy
12:55 PM 66.2 °F 60.8 °F 83% 30.33 in - North - - N/A   Partly Cloudy
1:55 PM 68.0 °F 60.8 °F 78% 30.33 in - North - - N/A   Partly Cloudy
2:00 PM 68 °F 61 °F 73%  in 16 mi West 9.2 mph - -  
2:55 PM 68.0 °F 60.8 °F 78% 30.33 in - North - - N/A   Partly Cloudy
3:55 PM 69.8 °F 60.8 °F 73% 30.33 in - North - - N/A   Partly Cloudy
4:55 PM 69.8 °F 60.8 °F 73% 30.33 in - North - - N/A   Partly Cloudy
5:55 PM 69.8 °F 59.0 °F 68% 30.33 in - North - - N/A   Partly Cloudy
6:55 PM 69.8 °F 59.0 °F 68% 30.33 in - North - - N/A   Clear
7:55 PM 69.8 °F 57.2 °F 64% 30.33 in - North - - N/A   Clear
8:00 PM 69 °F 58 °F 58%  in 16 mi West 6.9 mph - -  
8:55 PM 68.0 °F 57.2 °F 68% 30.33 in - North - - N/A   Clear
9:55 PM 66.2 °F 57.2 °F 73% 30.33 in - North - - N/A   Clear
10:55 PM 66.2 °F 57.2 °F 73% 30.33 in - North - - N/A   Clear
11:55 PM 64.4 °F 53.6 °F 68% 30.36 in - North - - N/A   Clear